Back to catalog

STARLINK-30946

AliveCommunicationsVLEO
NORAD 58450·PAYLOAD·🇺🇸 United States

Launched Nov 28, 2023 from Cape Canaveral Space Force Station

Loading…

Next Passes (next 24 hours)

TLE

FreshSource: CelesTrak SupGP

Epoch: Sep 15, 2026, 02:07 UTC

1 58450C 23183P   26258.08868056 -.00100240  00000+0 -36302-2 0  2585
2 58450  43.0014  51.9782 0001715 266.6702 344.7718 15.27632766    11

Track STARLINK-30946 in real time with AllMySat

Download on the App Store